Weather History for Concord, NH

Change the Weather History Date:

Saturday, March 2, 2013

  Actual Average Record
Temperature  
Mean Temperature 34 °F 28 °F  
Max Temperature 39 °F 39 °F 64 °F (1874)
Min Temperature 28 °F 18 °F -18 °F (1869)
Degree Days  
Heating Degree Days 31 37  
Month to date heating degree days 65 74  
Since 1 July heating degree days 4994 5334  
Cooling Degree Days 0 0  
Month to date cooling degree days 0 0  
Year to date cooling degree days 0 0  
Moisture  
Dew Point 25 °F    
Average Humidity 70    
Maximum Humidity 85    
Minimum Humidity 54    
Precipitation  
Precipitation T in 0.10 in 1.37 in (1983)
Month to date precipitation T 0.20  
Year to date precipitation 5.09 5.52  
Snow  
Snow T in 0.40 in 11.00 in (2009)
Month to date snowfall T 0.9  
Since 1 July snowfall 67.2 48.4  
Snow Depth 14.00 in    
Sea Level Pressure  
Sea Level Pressure 29.66 in    
Wind  
Wind Speed 8 mph (NW)    
Max Wind Speed 15 mph    
Max Gust Speed 20 mph    
Visibility 10 miles    
Events Snow    
T = Trace of Precipitation, MM = Missing Value Source: NWS Daily Summary

Daily Weather History Graph

Daily Weather History Graph

Search for Another Location

Airport:

Trip Planner

Search our weather history database for the weather conditions in past years. The results will help you decide how hot, cold, wet, or windy it might be!

Date:

Astronomy

Mar. 02, 2013 Rise Set
Actual Time 6:20 AM EST 5:36 PM EST
Civil Twilight 5:51 AM EST 6:05 PM EST
Nautical Twilight 5:18 AM EST 6:38 PM EST
Astronomical Twilight 4:45 AM EST 7:11 PM EST
Moon 11:23 PM EST (3/2) 8:36 AM EST (3/2)
Length of Visible Light 12h 13m
Length of Day
11h 16m
Waning Gibbous, 74% of the Moon is Illuminated
Mar 2
Waning Gibbous
Mar 4
Last Quarter
Mar 11
New
Mar 19
First Quarter
Mar 27
Full

Hourly Weather History & Observations

Time (EST) Temp. Windchill Dew Point Humidity Pressure Visibility Wind Dir Wind Speed Gust Speed Precip Events Conditions
12:51 AM 32.0 °F 25.6 °F 25.0 °F 75% 29.68 in 10.0 mi NW 6.9 mph - N/A   Overcast
1:51 AM 32.0 °F 25.6 °F 25.0 °F 75% 29.67 in 10.0 mi NW 6.9 mph - N/A   Overcast
2:51 AM 30.9 °F 25.2 °F 24.1 °F 76% 29.66 in 10.0 mi WNW 5.8 mph - N/A   Overcast
3:51 AM 30.9 °F 25.2 °F 24.1 °F 76% 29.67 in 10.0 mi West 5.8 mph - N/A   Clear
4:51 AM 30.0 °F 24.1 °F 23.0 °F 75% 29.66 in 10.0 mi NW 5.8 mph - N/A   Clear
5:51 AM 28.9 °F 23.9 °F 23.0 °F 78% 29.66 in 10.0 mi WNW 4.6 mph - N/A   Clear
6:51 AM 28.9 °F 25.2 °F 23.0 °F 78% 29.67 in 10.0 mi NW 3.5 mph - N/A   Overcast
7:51 AM 32.0 °F 26.4 °F 25.0 °F 75% 29.67 in 10.0 mi NW 5.8 mph - N/A   Overcast
8:51 AM 34.0 °F 26.6 °F 25.0 °F 70% 29.67 in 10.0 mi NNW 9.2 mph - N/A   Overcast
9:51 AM 35.1 °F 28.6 °F 25.0 °F 67% 29.68 in 10.0 mi WNW 8.1 mph - N/A   Overcast
10:51 AM 36.0 °F 28.5 °F 25.0 °F 64% 29.66 in 10.0 mi WNW 10.4 mph - N/A   Overcast
11:51 AM 37.9 °F 30.9 °F 26.1 °F 62% 29.65 in 10.0 mi WNW 10.4 mph - N/A   Overcast
12:51 PM 39.0 °F 31.8 °F 26.1 °F 60% 29.63 in 10.0 mi WNW 11.5 mph - N/A   Overcast
1:51 PM 37.9 °F 30.0 °F 26.1 °F 62% 29.63 in 10.0 mi WNW 12.7 mph - N/A   Mostly Cloudy
2:51 PM 37.9 °F 30.0 °F 26.1 °F 62% 29.62 in 10.0 mi NW 12.7 mph - N/A   Clear
3:51 PM 37.9 °F 30.5 °F 25.0 °F 60% 29.63 in 10.0 mi NW 11.5 mph 19.6 mph N/A   Partly Cloudy
4:51 PM 37.0 °F 29.3 °F 23.0 °F 57% 29.64 in 10.0 mi NNW 11.5 mph - N/A   Mostly Cloudy
5:51 PM 36.0 °F 30.3 °F 24.1 °F 62% 29.66 in 10.0 mi NNW 6.9 mph - N/A   Overcast
6:51 PM 34.0 °F 25.5 °F 24.1 °F 67% 29.67 in 10.0 mi NNW 11.5 mph 17.3 mph N/A   Overcast
7:51 PM 33.1 °F 24.4 °F 24.1 °F 70% 29.67 in 10.0 mi NW 11.5 mph 19.6 mph N/A   Overcast
8:37 PM 32.0 °F 24.8 °F 24.8 °F 75% 29.67 in 10.0 mi NNW 8.1 mph - N/A   Overcast
8:51 PM 32.0 °F 24.8 °F 24.1 °F 73% 29.69 in 10.0 mi NNW 8.1 mph - N/A   Overcast
9:06 PM 32.0 °F 24.8 °F 24.8 °F 75% 29.67 in 10.0 mi NNW 8.1 mph - N/A   Overcast
9:20 PM 30.2 °F 21.3 °F 24.8 °F 80% 29.67 in 10.0 mi NW 10.4 mph - N/A   Overcast
9:51 PM 30.9 °F 24.3 °F 25.0 °F 79% 29.69 in 6.0 mi NNW 6.9 mph - 0.00 in Snow Light Snow
10:51 PM 30.0 °F 22.4 °F 26.1 °F 85% 29.67 in 8.0 mi NW 8.1 mph - 0.00 in Snow Light Snow
11:49 PM 28.4 °F 23.3 °F 26.6 °F 93% 29.65 in 8.0 mi NW 4.6 mph - 0.00 in Snow Light Snow
11:51 PM 28.9 °F 25.2 °F 27.0 °F 92% 29.66 in 8.0 mi NW 3.5 mph - 0.00 in Snow Light Snow